Weather History for Challis, ID

Change the Weather History Date:

Sunday, September 1, 2013

  Actual Average Record
Temperature  
Mean Temperature 68 °F 61 °F  
Max Temperature 87 °F 79 °F 93 °F (1995)
Min Temperature 48 °F 43 °F 33 °F (1930)
Degree Days  
Heating Degree Days 0 5  
Month to date heating degree days 0 5  
Since 1 July heating degree days 6 78  
Cooling Degree Days 3 1  
Month to date cooling degree days 3 1  
Year to date cooling degree days 393 243  
Growing Degree Days 18 (Base 50)    
Moisture  
Dew Point 32 °F    
Average Humidity 32    
Maximum Humidity 50    
Minimum Humidity 14    
Precipitation  
Precipitation 0.00 in 0.02 in 0.48 in (2000)
Month to date precipitation 0.00 0.02  
Year to date precipitation 2.51 7.41  
Sea Level Pressure  
Sea Level Pressure 29.90 in    
Wind  
Wind Speed 1 mph (NE)    
Max Wind Speed 7 mph    
Max Gust Speed 8 mph    
Visibility 10 miles    
Events      
T = Trace of Precipitation, MM = Missing Value Source: NWS Daily Summary

Daily Weather History Graph

Daily Weather History Graph

Search for Another Location

Airport:

Trip Planner

Search our weather history database for the weather conditions in past years. The results will help you decide how hot, cold, wet, or windy it might be!

Date:

Astronomy

Sep. 01, 2013 Rise Set
Actual Time 6:59 AM MDT 8:12 PM MDT
Civil Twilight 6:29 AM MDT 8:42 PM MDT
Nautical Twilight 5:53 AM MDT 9:18 PM MDT
Astronomical Twilight 5:15 AM MDT 9:56 PM MDT
Moon 3:19 AM MDT (9/1) 5:57 PM MDT (9/1)
Length of Visible Light 14h 12m
Length of Day
13h 12m
Waning Crescent, 13% of the Moon is Illuminated
Sep 1
Waning Crescent
Sep 5
New
Sep 12
First Quarter
Sep 19
Full
Sep 26
Last Quarter

Hourly Weather History & Observations

Time (MDT) Temp. Dew Point Humidity Pressure Visibility Wind Dir Wind Speed Gust Speed Precip Events Conditions
12:55 AM 60.1 °F 30.9 °F 33% 29.94 in 10.0 mi Calm Calm - N/A   Clear
1:55 AM 57.0 °F 30.0 °F 36% 29.93 in 10.0 mi Calm Calm - N/A   Partly Cloudy
2:55 AM 55.0 °F 28.0 °F 35% 29.93 in 10.0 mi Calm Calm - N/A   Clear
3:55 AM 52.0 °F 30.9 °F 45% 29.93 in 10.0 mi Calm Calm - N/A   Clear
4:55 AM 52.0 °F 27.0 °F 38% 29.94 in 10.0 mi Calm Calm - N/A   Clear
5:55 AM 53.1 °F 27.0 °F 37% 29.94 in 10.0 mi Calm Calm - N/A   Clear
6:55 AM 51.1 °F 27.0 °F 39% 29.97 in 10.0 mi Calm Calm - N/A   Clear
7:55 AM 53.1 °F 30.0 °F 41% 30.00 in 10.0 mi Calm Calm - N/A   Mostly Cloudy
8:55 AM 54.0 °F 35.1 °F 49% 30.01 in 10.0 mi Calm Calm - N/A   Clear
9:55 AM 61.0 °F 33.1 °F 35% 30.01 in 10.0 mi Calm Calm - N/A   Clear
10:55 AM 66.9 °F 35.1 °F 31% 29.99 in 10.0 mi North 3.5 mph - N/A   Clear
11:55 AM 72.0 °F 28.9 °F 20% 29.96 in 10.0 mi Calm Calm - N/A   Clear
12:55 PM 79.0 °F 30.0 °F 17% 29.92 in 10.0 mi ENE 3.5 mph - N/A   Clear
2:55 PM 84.9 °F 30.0 °F 14% 29.86 in 10.0 mi Calm Calm - N/A   Clear
3:55 PM 84.9 °F 33.1 °F 16% 29.83 in 10.0 mi SE 3.5 mph - N/A   Clear
4:55 PM 86.0 °F 44.1 °F 23% 29.81 in 10.0 mi Calm Calm - N/A   Clear
5:55 PM 86.0 °F 39.0 °F 19% 29.79 in 10.0 mi NW 3.5 mph - 0.00 in   Clear
6:55 PM 86.0 °F 35.1 °F 16% 29.79 in 10.0 mi Calm Calm - N/A   Clear
7:55 PM 77.0 °F 32.0 °F 19% 29.81 in 10.0 mi Variable 3.5 mph - N/A   Clear
8:55 PM 73.0 °F 35.1 °F 25% 29.83 in 10.0 mi Calm Calm - N/A   Clear
9:55 PM 70.0 °F 32.0 °F 25% 29.84 in 10.0 mi Calm Calm - N/A   Clear
10:55 PM 66.9 °F 32.0 °F 27% 29.86 in 10.0 mi Calm Calm - N/A   Clear
11:55 PM 60.1 °F 33.1 °F 36% 29.87 in 10.0 mi Calm Calm - N/A   Clear